User: anonymous   Login
Location: Carnoy
(49.9849°N, 2.7558°E)
Time: 12:56:50
(UTC+00:00)
Language:

ERBS - Orbit

View from above orbital plane
View from above orbital plane
View from above satellite
View from above satellite

Ground track
Ground track

The orbit data is extracted from the following two-line orbital elements,

1 15354U 84108B   20098.82160174 +.00002181 +00000-0 +47034-4 0  9991
2 15354 057.0076 022.6199 0003766 274.2423 085.8204 15.49247890956613
Epoch (UTC): 07 April 2020 19:43:06
Eccentricity: 0.0003766
inclination: 57.0076°
perigee height: 416 km
apogee height: 421 km
right ascension of ascending node: 22.6199°
argument of perigee: 274.2423°
revolutions per day: 15.49247890
mean anomaly at epoch: 85.8204°
orbit number at epoch: 95661

The dashed part of the orbit path shows where the satellite is in the earth's shadow,  

DLR